Location: Bretagne
(43.8474°N, 0.4650°W)
Time: 15:17:43
(UTC+00:00)

AQUARIUS - Pass Details

Date: 15 January 2026
Orbit: 633 x 636 km, 98.0° (Epoch: 17 February)

Event Time Altitude Azimuth Distance (km) Brightness Sun altitude
Rises 17:56:05 0° 170° (S) 2,920 7.6 -11.7°
Reaches altitude 10° 17:58:17 10° 172° (S) 2,017 6.8 -12.1°
Maximum altitude 18:02:40 74° 257° (WSW) 667 4.4 -12.9°
Drops below altitude 10° 18:07:06 10° 343° (NNW) 2,032 6.7 -13.6°
Sets 18:09:19 0° 346° (NNW) 2,945 7.5 -14.0°
